GEFSSGP_con_probscp_282.txt.gz
Probability
7 5 3 1 0 0 0 0 0 0 0 0 0 0 0 0 0 0 0 0 0 0 0 1 1 1 0 0 0 0 0 1 2 4 2 1 1 2 2 1 1 4 5 3 1 1 3 5 6
5 4 2 1 0 0 0 0 0 0 0 0 0 0 0 0 0 0 0 0 0 0 0 0 0 0 0 0 0 0 0 0 1 2 1 0 0 1 1 0 1 4 4 2 0 1 3 6 7
4 3 1 0 0 0 0 0 0 0 0 0 0 0 0 0 0 0 0 0 0 0 0 0 0 1 1 0 0 0 0 0 0 0 0 0 1 1 2 2 3 4 3 2 1 3 5 7 9
3 2 1 0 0 0 0 0 0 0 0 0 0 0 0 0 0 0 0 0 0 0 0 0 1 2 2 1 0 0 0 0 0 0 0 1 2 3 3 5 6 6 4 3 5 6 6 8 10
2 2 1 0 0 0 0 0 0 0 0 0 0 0 0 0 0 0 0 0 0 0 0 0 1 2 3 2 1 0 1 1 1 0 0 1 2 3 4 5 8 8 7 6 8 8 7 7 9
2 2 1 0 0 0 0 0 0 0 0 0 0 0 0 0 0 0 0 0 0 0 0 0 1 2 3 3 2 2 2 2 1 0 0 1 2 3 3 5 7 9 9 8 8 7 6 5 5
3 2 1 0 0 0 0 0 0 0 0 0 0 0 0 0 0 0 0 0 0 0 0 0 0 1 2 3 3 3 3 2 1 0 0 0 1 1 2 4 6 8 8 8 8 6 4 3 3
3 2 1 0 0 0 0 0 0 0 0 0 0 0 0 0 0 0 0 0 0 0 0 0 0 0 1 3 3 3 3 1 0 0 0 0 0 0 1 1 3 5 6 7 7 5 3 2 3
3 2 1 0 0 0 0 0 0 0 0 0 0 0 0 0 0 0 0 0 0 0 0 0 0 0 1 2 3 3 2 1 1 1 0 0 0 0 0 1 1 2 3 5 5 5 4 3 3
3 2 1 0 0 0 0 0 0 0 0 0 0 0 0 0 0 0 0 0 0 0 0 0 0 0 1 2 2 2 1 1 1 1 0 0 0 0 0 1 1 1 1 2 3 4 4 3 2
3 2 1 0 0 0 0 0 0 0 0 0 0 1 1 1 0 0 0 0 0 0 0 0 0 0 0 1 1 1 0 0 1 1 0 0 0 0 0 0 0 0 0 0 1 1 1 1 1
2 2 1 0 0 0 0 0 0 0 0 0 1 2 2 1 0 0 0 0 0 0 0 0 0 0 0 0 0 0 0 0 0 0 0 0 0 0 0 0 0 0 0 0 0 0 0 0 0
1 1 0 0 0 0 0 0 0 1 1 1 2 3 2 1 0 0 0 0 0 0 0 0 0 0 0 0 0 0 0 0 0 0 0 0 0 0 0 0 0 0 0 0 0 0 0 0 0
0 0 0 0 0 0 0 0 0 1 2 1 2 2 1 0 0 0 0 0 0 0 0 0 0 0 0 0 0 0 0 0 0 0 0 0 0 0 0 0 0 0 0 0 0 0 0 0 0
0 0 0 0 0 0 0 0 0 1 2 1 1 1 0 0 0 1 2 1 1 0 0 0 0 0 0 0 0 0 0 0 0 0 0 0 0 0 0 0 0 0 0 0 0 0 0 0 0
0 0 0 0 0 0 0 0 0 2 2 1 0 0 0 0 1 2 3 3 2 1 1 1 0 0 0 1 1 0 0 0 0 0 0 0 0 0 0 0 0 0 0 0 0 0 0 0 0
0 0 0 0 0 0 0 0 0 1 1 1 0 0 0 1 1 2 3 4 4 4 3 2 1 1 1 2 2 1 0 0 0 0 0 0 0 0 0 0 0 0 0 0 0 0 0 0 0
0 0 0 0 0 0 0 0 0 0 0 0 0 0 0 0 0 1 3 4 6 6 5 4 3 2 3 3 3 2 1 0 0 0 0 0 0 0 0 0 0 0 0 0 0 0 0 0 0
0 0 0 0 0 0 0 0 0 0 0 0 0 0 0 0 0 0 1 3 5 7 7 5 3 3 3 3 3 2 1 0 0 0 0 0 0 0 0 0 0 0 0 0 0 0 0 0 0
0 0 0 0 0 0 0 0 0 0 0 0 1 1 1 1 1 0 0 1 3 4 5 3 2 2 3 3 3 2 1 0 0 0 0 0 0 0 0 0 0 0 0 0 0 0 0 0 0
0 0 0 0 0 0 0 0 0 0 0 0 1 2 2 2 2 1 0 0 1 1 2 1 1 1 2 2 2 2 1 1 0 0 0 0 0 1 2 2 1 1 1 1 1 1 1 1 1
0 0 0 0 0 0 0 0 0 0 0 0 1 2 3 3 3 2 1 0 0 0 0 0 0 1 1 1 2 2 2 2 1 1 1 1 1 1 3 4 4 3 3 3 2 2 2 2 2
0 0 0 0 0 0 0 0 0 0 0 0 1 2 4 5 5 3 1 0 0 0 0 0 0 0 1 2 3 3 3 3 3 2 2 2 2 2 3 5 6 6 5 4 2 1 1 2 3
0 0 0 0 0 0 0 0 0 0 0 0 1 2 4 7 6 3 1 1 0 0 0 0 0 0 1 2 3 3 3 3 3 3 3 3 3 1 2 4 5 6 5 4 3 2 1 2 3
0 0 0 0 0 0 0 0 0 0 0 0 0 1 4 7 7 3 2 1 0 0 0 0 0 0 1 3 3 3 3 3 3 3 3 3 3 1 1 3 4 5 5 4 4 4 4 4 4
0 0 0 0 0 0 0 0 0 0 0 0 0 2 5 7 7 5 2 1 0 0 0 0 0 1 2 3 4 3 3 3 4 3 3 3 3 3 3 4 5 5 6 6 5 5 6 7 7
0 0 0 0 0 0 0 0 0 0 0 0 1 3 6 7 8 6 2 1 1 0 1 1 1 2 3 4 5 4 3 5 6 5 4 3 4 5 6 7 7 7 6 6 6 5 6 8 9
0 0 0 0 0 0 0 0 0 0 0 0 1 3 5 6 8 8 4 3 2 2 2 3 4 4 4 5 5 5 6 7 9 9 6 4 5 6 7 9 9 7 6 6 5 5 5 8 10
0 0 0 0 0 0 0 0 0 0 0 1 2 3 5 8 11 12 10 7 6 6 6 6 7 7 7 6 7 8 9 9 10 10 9 7 6 6 7 8 8 7 6 5 5 5 6 8 9
0 0 0 0 0 0 0 0 0 0 1 2 3 4 6 10 14 16 14 11 10 10 9 9 10 9 8 8 9 10 9 8 10 11 11 9 6 5 5 6 7 6 5 6 6 6 6 8 9

GEFSSGP_con_probscp_288.txt.gz
Probability
10 8 7 7 5 2 0 0 0 0 0 0 0 0 0 0 0 0 0 0 0 0 0 0 0 1 1 1 0 0 0 0 0 0 0 0 0 0 0 1 2 2 2 3 5 7 7 5 2
11 9 8 7 4 1 0 0 0 0 0 0 0 0 0 0 0 0 0 0 0 0 0 1 1 2 2 1 0 0 0 0 0 0 0 0 0 0 1 2 3 3 4 4 5 7 6 4 2
12 11 9 6 2 0 0 0 0 0 0 0 0 0 0 0 0 0 0 0 0 0 1 2 3 3 4 3 1 0 0 0 0 0 0 1 0 1 2 4 5 5 4 3 4 5 5 3 2
12 10 7 3 1 0 0 0 0 0 0 0 0 0 0 0 0 0 0 0 0 0 1 2 3 4 5 4 2 1 1 1 0 0 0 1 1 1 3 4 6 6 5 4 3 5 5 4 3
10 7 3 1 0 0 0 0 0 0 0 0 0 0 0 0 0 0 0 0 0 0 0 1 3 4 4 4 2 1 2 2 2 1 0 1 2 3 4 5 7 8 8 7 6 6 6 5 4
6 3 1 0 0 0 0 0 0 0 0 0 0 0 0 0 0 0 0 0 0 0 0 1 2 3 3 3 1 1 2 3 3 2 1 1 3 3 4 6 8 10 11 10 8 7 7 5 4
3 2 0 0 0 0 0 0 0 0 0 0 0 0 0 0 0 0 0 0 0 0 0 0 1 1 2 2 1 0 1 1 2 2 2 3 3 4 5 6 8 10 11 11 9 8 7 6 5
3 2 1 0 0 0 0 0 0 0 0 0 0 0 0 0 0 0 0 0 0 0 0 0 0 0 1 1 0 0 0 0 0 1 2 3 3 3 5 6 7 8 9 9 8 8 8 7 5
4 2 1 0 0 0 0 0 0 0 0 0 0 0 0 0 0 0 0 0 0 0 0 0 0 0 0 0 0 0 0 1 1 1 2 2 2 2 3 4 5 5 5 5 6 7 8 6 4
3 1 0 0 0 0 0 0 0 0 0 0 1 1 0 0 0 0 0 0 0 0 0 0 0 0 0 0 0 0 1 2 2 2 2 3 3 2 2 2 4 4 3 2 3 5 6 5 2
2 1 1 0 0 0 0 0 0 0 0 1 2 2 1 0 0 0 0 0 0 0 0 0 0 0 0 0 0 0 1 3 2 2 2 3 3 3 1 2 5 6 4 2 2 3 5 3 1
3 2 1 0 0 0 0 0 0 0 0 1 2 3 2 1 0 0 0 0 0 0 0 0 0 0 0 0 0 0 2 2 2 1 2 3 3 2 2 3 6 7 5 2 1 2 2 1 0
2 2 1 0 0 0 0 0 0 0 0 1 3 3 2 1 0 1 1 0 0 0 0 0 1 1 0 0 0 0 1 2 2 1 2 3 4 4 3 3 5 5 4 1 0 1 1 0 1
1 1 0 0 0 0 0 0 0 0 1 2 3 3 2 1 1 2 2 1 0 0 0 0 1 1 0 0 0 0 1 2 2 1 1 3 5 5 4 2 2 3 2 1 0 0 0 0 1
0 0 0 0 0 0 0 0 0 0 1 2 3 3 2 1 1 2 3 2 1 0 0 0 1 1 1 1 1 2 1 1 1 1 1 2 4 4 4 2 1 1 1 0 0 0 0 0 1
0 0 0 0 0 0 0 0 0 0 0 1 1 3 3 1 0 1 2 2 1 0 0 0 1 2 3 3 3 3 2 1 0 0 1 1 2 2 3 3 3 2 1 0 0 0 0 0 0
0 0 0 0 0 0 0 0 0 0 0 0 1 2 2 2 1 0 1 1 1 0 0 1 3 4 5 5 5 4 2 1 0 0 0 1 1 2 3 3 3 3 1 0 0 0 0 0 0
0 0 0 0 0 0 0 0 0 0 0 0 0 1 1 2 1 0 0 0 0 0 1 3 5 6 5 5 6 4 2 1 1 1 1 1 2 3 3 3 3 2 1 0 0 0 0 0 0
0 0 0 0 0 0 0 0 0 0 0 0 0 0 1 2 2 1 0 0 0 1 2 3 4 5 4 4 5 5 3 2 2 2 1 2 3 4 4 3 2 1 0 0 1 2 1 0 0
0 0 0 0 0 0 0 0 0 0 0 0 0 0 1 2 3 2 0 0 0 1 2 2 3 3 3 3 5 7 6 4 3 3 2 2 3 3 3 3 2 1 0 1 5 5 3 1 1
0 0 0 0 0 0 0 0 0 0 0 0 1 2 1 2 3 4 2 0 0 1 2 3 2 3 3 3 5 8 8 5 4 3 2 3 3 4 4 4 4 4 3 4 8 9 7 5 5
0 0 0 0 0 0 0 0 0 0 0 0 1 2 1 1 3 4 4 1 0 1 2 3 4 5 6 7 8 9 9 7 5 4 3 3 4 5 6 6 8 8 8 9 12 13 11 10 9
0 0 0 0 0 0 0 0 0 0 0 0 1 1 1 1 3 5 4 2 1 0 1 3 5 7 10 12 12 11 10 8 8 8 7 7 7 8 9 9 10 11 12 14 15 15 15 13 12
0 0 0 0 0 0 0 0 0 0 0 0 0 0 1 2 4 6 6 4 2 0 0 1 4 9 13 14 14 14 12 12 13 13 13 13 11 12 13 12 12 13 14 16 18 18 17 16 15
0 0 0 0 0 0 0 0 0 0 0 0 0 1 3 4 5 7 9 8 4 2 1 2 5 10 13 14 15 15 14 15 17 18 18 17 15 15 15 15 15 15 16 18 20 20 19 17 16
0 0 0 0 0 0 0 0 0 0 0 0 0 2 4 6 7 9 11 11 8 4 3 4 7 11 12 13 14 14 15 16 18 21 21 18 16 15 14 15 17 18 18 20 20 19 18 16 14
0 0 0 0 0 0 0 0 0 0 0 0 1 3 5 7 8 10 11 12 10 7 6 6 8 10 12 13 13 13 14 16 19 22 22 19 16 14 13 15 18 20 20 20 19 17 16 15 13
0 0 0 0 0 0 0 0 0 0 0 0 1 4 7 9 11 12 13 13 13 11 9 8 9 10 12 13 14 14 16 19 23 25 24 22 19 15 14 17 19 21 21 20 18 14 13 13 12
0 0 0 0 0 0 0 0 0 0 1 1 3 6 10 13 15 15 15 15 16 15 14 14 14 12 12 15 17 17 19 22 26 27 26 24 21 18 18 19 21 21 20 18 15 12 11 12 12
0 0 0 0 0 0 0 0 0 1 2 2 3 6 13 18 18 18 16 16 16 18 19 20 19 15 13 16 20 21 20 22 25 26 25 24 22 20 20 20 21 20 18 15 13 12 11 12 12

GEFSSGP_con_probscp_294.txt.gz
Probability
4 8 15 17 12 4 1 0 0 0 0 0 0 0 0 0 0 0 0 0 0 0 0 0 0 0 0 0 0 0 0 0 1 2 3 4 4 3 2 2 2 3 4 3 1 2 3 3 2
6 11 18 16 8 2 0 0 0 0 0 0 0 0 0 0 0 0 0 0 0 0 0 0 0 0 0 0 0 0 0 0 1 2 3 3 3 2 1 1 1 1 3 2 1 1 3 3 3
13 20 21 13 4 0 0 0 0 0 0 0 0 0 0 0 0 0 0 0 0 0 0 1 1 1 0 0 0 0 0 0 1 2 2 2 2 2 0 0 0 0 2 2 1 1 3 4 5
27 28 21 9 2 0 0 0 0 0 0 0 0 0 0 0 0 0 0 0 0 0 0 2 2 1 0 0 0 0 0 0 1 1 1 1 2 3 1 1 1 1 3 4 3 3 5 7 7
35 28 16 5 1 0 0 0 0 0 0 0 0 0 0 0 0 0 0 0 0 0 0 1 1 1 0 0 0 0 0 1 2 2 1 1 3 4 4 3 3 3 5 6 6 6 8 9 10
29 21 10 2 0 0 0 0 0 0 0 0 0 0 1 1 1 0 0 0 0 0 0 0 0 0 0 0 0 1 1 2 3 3 2 2 4 6 7 7 6 5 6 7 7 7 8 10 11
19 14 6 1 0 0 0 0 0 0 0 0 0 0 1 1 1 0 0 0 0 0 0 0 1 1 1 0 0 1 2 3 4 4 3 3 5 7 9 10 9 7 7 7 7 6 7 10 12
11 7 3 1 0 0 0 0 0 0 0 0 0 0 0 0 0 0 0 0 0 0 0 1 2 2 1 0 1 2 3 3 3 4 4 4 5 7 9 10 10 7 6 6 6 6 6 8 10
5 3 1 0 0 0 0 0 0 0 0 0 0 0 0 0 0 0 0 0 0 0 0 1 2 2 1 0 2 4 3 2 2 3 5 4 4 4 6 7 8 7 5 4 5 6 6 7 7
2 1 0 0 0 0 0 0 0 0 0 0 0 0 0 0 0 0 0 0 0 0 0 0 1 2 1 0 2 3 3 2 2 3 3 3 2 2 3 4 5 5 4 4 5 5 4 4 3
2 1 0 0 0 0 0 0 0 0 0 1 1 1 0 0 0 0 0 0 0 0 0 1 2 4 3 1 1 1 2 2 3 4 3 2 2 2 1 2 3 4 3 4 5 4 2 1 1
1 0 0 0 0 0 0 0 0 0 1 2 2 1 0 0 0 0 0 0 0 0 1 2 4 5 5 4 2 1 1 2 3 5 6 4 3 2 1 1 3 3 3 3 3 2 0 0 0
0 0 0 0 0 0 0 0 0 1 2 3 3 1 0 0 0 0 0 0 0 0 1 3 4 5 8 8 6 2 1 1 3 7 8 7 4 3 3 3 4 5 4 2 1 0 0 0 0
0 0 0 0 0 0 0 0 1 2 3 3 3 2 1 0 0 0 0 0 0 0 1 3 4 6 8 10 9 4 2 2 3 6 8 7 6 5 5 5 5 6 6 4 3 1 1 2 2
0 0 0 0 0 0 0 0 1 3 3 3 3 3 2 1 0 0 0 0 0 1 3 5 5 7 9 10 9 6 4 4 4 4 6 7 6 6 7 5 3 4 5 6 5 4 3 5 5
0 0 0 0 0 0 0 1 2 3 3 4 4 4 3 1 0 0 0 1 1 3 5 5 5 8 12 12 10 7 6 6 6 6 7 8 8 8 7 6 3 3 5 6 6 5 5 6 6
0 0 0 0 0 0 0 1 1 2 3 5 5 6 5 2 2 2 2 2 4 7 9 9 8 10 15 17 14 11 10 9 8 8 9 10 10 9 9 8 7 7 7 7 7 8 9 8 7
0 0 0 0 0 0 0 1 1 1 3 5 7 9 8 6 5 6 4 4 7 11 13 14 13 14 18 19 17 14 12 11 10 11 11 11 10 10 10 12 11 10 10 9 9 12 14 13 12
0 0 0 0 0 0 0 1 1 1 2 5 7 10 11 9 9 10 8 6 10 16 19 18 17 16 16 18 17 15 12 11 12 12 13 12 11 10 12 14 14 13 13 12 13 16 17 17 17
0 0 0 0 0 0 0 0 1 1 1 3 5 8 11 12 13 12 11 10 14 20 23 20 18 16 14 13 14 13 12 11 11 13 15 14 12 11 12 16 17 15 15 16 17 18 18 17 17
0 0 0 0 0 0 0 0 1 1 1 1 2 5 9 13 17 17 14 14 17 23 25 22 22 21 17 13 12 12 12 11 10 13 16 16 14 13 13 16 18 17 17 18 19 20 20 20 19
0 0 0 0 0 0 0 1 1 1 0 0 0 1 5 13 19 20 18 17 19 22 25 27 29 28 24 20 17 15 14 13 11 12 15 18 19 18 18 20 21 19 18 18 18 20 22 23 23
0 0 0 0 0 0 0 1 1 1 0 0 0 0 3 10 18 21 21 20 19 19 24 32 35 32 30 27 24 21 19 17 15 14 16 21 23 23 24 25 23 21 20 19 18 19 22 23 24
0 0 0 0 0 0 0 1 1 1 1 1 1 1 2 7 15 19 21 22 19 17 23 33 37 34 30 29 27 25 23 22 22 21 21 23 24 24 24 25 25 23 22 22 21 21 23 24 24
0 0 1 0 0 0 0 1 3 2 2 4 4 3 3 7 13 18 21 22 20 19 25 37 41 35 29 27 28 27 27 26 26 25 25 24 22 22 23 24 25 24 23 23 22 22 24 25 25
0 0 0 0 0 0 0 2 3 4 4 5 5 5 6 8 12 18 21 22 21 23 30 39 43 39 31 27 28 30 31 30 28 28 28 26 24 22 23 24 25 24 22 22 22 22 24 25 25
0 0 0 0 0 0 1 3 4 4 5 4 4 5 7 9 13 18 21 21 22 26 32 38 42 42 37 32 30 32 34 34 33 33 31 29 27 25 24 24 25 24 22 22 24 23 23 25 25
0 0 0 0 0 0 1 2 3 3 4 3 4 5 6 8 14 18 21 22 23 26 31 36 40 42 42 38 33 32 34 36 36 35 32 30 28 26 25 25 24 23 22 24 25 23 22 25 26
0 0 0 0 0 0 0 1 2 2 3 5 6 7 8 10 15 19 21 23 24 25 30 36 39 41 42 39 33 31 31 33 33 31 29 28 28 26 26 25 24 22 21 24 24 21 21 23 24
0 0 0 1 1 1 0 1 2 2 3 6 7 8 10 14 18 22 23 24 24 25 29 37 40 39 38 35 32 30 30 30 29 27 26 27 27 26 25 25 25 22 20 22 22 20 20 20 20

GEFSSGP_con_probscp_300.txt.gz
Probability
7 6 3 3 4 1 0 0 0 0 0 0 0 0 0 0 0 0 0 0 0 0 0 2 4 3 1 0 1 1 1 2 2 1 1 1 1 2 3 4 3 1 0 0 0 0 0 0 0
5 4 3 3 3 1 0 0 0 0 0 0 0 0 0 0 0 0 0 0 0 0 0 1 2 2 1 1 1 1 1 1 1 1 1 2 2 3 3 4 3 2 1 1 1 1 1 1 1
4 4 4 3 1 0 0 0 0 0 0 0 0 0 0 0 0 0 0 0 0 0 0 0 1 2 2 1 2 2 1 0 0 1 2 3 3 3 3 3 3 3 3 3 4 4 3 3 3
5 6 6 3 1 0 0 0 0 0 0 0 0 0 0 0 0 0 0 0 0 0 0 0 0 1 2 2 2 2 1 0 0 0 2 3 3 2 2 3 3 4 4 4 5 6 6 6 6
8 9 7 3 0 0 0 0 0 1 1 1 1 1 0 0 0 0 0 0 0 0 0 0 0 0 1 2 2 1 0 0 0 0 1 2 1 1 2 3 4 5 5 5 6 6 6 6 6
13 11 7 2 0 0 0 0 0 1 2 2 2 1 0 0 0 0 0 0 0 0 0 0 0 0 1 1 1 1 0 0 0 1 1 1 1 2 3 4 5 6 6 5 5 5 5 5 6
14 10 6 2 0 0 0 0 0 0 1 1 1 1 0 0 0 0 0 0 0 0 0 0 0 0 1 1 2 2 1 0 1 2 2 2 2 3 4 4 5 6 5 4 4 3 2 3 5
12 8 3 1 0 0 0 0 0 1 1 1 1 0 0 0 0 0 0 0 0 0 0 0 0 0 1 2 3 3 2 1 2 3 3 3 3 3 3 3 4 4 4 3 3 2 2 3 5
9 5 1 0 0 0 0 0 1 2 2 2 1 0 0 0 0 0 0 0 1 0 0 0 0 0 0 1 2 2 2 1 2 3 3 3 3 3 2 2 2 3 3 3 3 4 5 6 7
6 3 0 0 0 0 0 0 1 2 3 3 2 1 0 0 0 0 0 1 2 1 0 0 0 0 0 0 1 1 1 1 2 2 2 2 2 2 1 1 2 2 2 2 3 5 7 8 7
4 3 1 0 0 0 0 0 1 2 4 4 3 2 1 0 0 0 1 2 3 3 1 0 0 0 0 0 0 0 0 0 1 1 1 1 1 1 0 1 1 1 1 1 1 3 5 5 5
3 3 1 0 0 0 0 0 1 2 4 5 4 2 1 1 1 1 2 3 5 4 1 0 0 0 0 0 0 0 0 0 0 0 0 0 0 0 0 0 0 0 0 0 0 1 1 2 2
2 1 1 0 0 0 0 0 1 3 5 5 4 2 1 2 4 4 3 4 5 4 1 0 0 0 0 0 0 0 0 0 0 0 0 0 0 0 1 1 1 0 0 0 0 0 0 0 0
1 0 0 0 0 0 0 0 1 3 6 6 4 3 2 3 5 5 4 4 4 2 1 0 1 1 0 0 0 0 0 0 0 0 0 0 0 0 1 1 1 0 0 0 0 0 0 0 0
0 0 0 0 0 0 0 0 1 3 5 6 5 5 4 3 3 4 4 4 3 2 1 1 2 2 1 1 1 0 0 0 0 0 0 0 0 0 0 0 0 0 0 0 0 0 0 0 0
0 0 0 0 0 0 0 0 1 2 5 7 7 6 4 2 2 3 4 5 4 3 3 4 5 4 3 3 2 1 0 0 0 0 0 0 0 0 0 1 1 1 1 1 1 1 1 1 0
0 0 0 0 0 0 0 0 0 2 5 7 7 6 4 3 3 4 6 6 4 4 6 6 6 5 5 3 2 1 0 0 0 0 0 0 0 0 0 1 2 2 2 2 2 2 2 2 1
0 0 0 0 0 0 0 0 0 2 4 7 7 5 3 3 5 8 9 8 6 6 6 7 6 5 4 3 1 0 0 0 0 0 1 1 1 1 1 1 3 3 4 4 3 3 3 3 3
0 0 0 0 0 0 0 0 0 1 4 6 5 4 2 3 6 10 12 11 9 8 7 7 6 4 3 3 1 1 1 1 1 1 2 3 3 2 1 2 3 4 5 4 4 4 4 4 4
0 0 0 0 0 0 0 0 0 1 4 6 4 3 3 3 5 10 13 13 11 10 8 7 6 5 5 5 3 3 3 2 2 2 3 4 4 3 4 5 7 7 7 7 8 8 7 6 6
0 0 0 0 0 0 0 0 0 1 3 5 4 3 4 5 5 8 12 15 15 12 10 7 6 7 8 7 5 4 4 3 2 3 3 3 4 5 6 8 10 10 10 10 10 11 10 9 8
0 0 0 0 0 0 0 0 0 0 1 3 4 4 6 7 7 9 13 17 18 16 13 9 7 8 8 7 6 5 5 4 3 3 3 3 3 5 7 9 10 11 11 11 11 11 11 11 12
0 0 0 0 0 0 0 0 0 0 1 4 7 7 8 9 10 11 14 18 20 20 17 11 7 8 8 7 6 6 5 5 5 4 4 3 3 4 6 8 9 10 11 12 11 11 11 13 14
0 0 0 0 0 0 0 0 0 1 2 6 10 11 10 11 13 13 14 16 17 19 19 14 9 9 9 8 8 8 7 7 7 6 5 4 4 5 6 7 8 10 12 13 12 11 12 14 14
0 0 0 0 0 0 0 0 1 2 4 7 11 13 13 13 14 14 13 13 14 17 19 17 12 12 12 11 11 11 11 11 10 9 7 6 6 6 6 7 8 10 11 11 10 11 12 14 14
0 0 0 0 0 0 0 2 4 5 7 9 12 15 17 16 16 15 14 12 13 16 20 20 16 15 15 14 13 12 12 12 11 9 8 7 6 7 7 8 9 10 10 10 10 11 11 13 14
0 0 0 0 0 0 0 2 5 8 10 12 15 17 19 18 17 16 15 13 13 16 21 23 20 18 16 14 13 11 11 11 10 8 7 6 6 7 8 9 9 9 8 9 11 11 11 12 12
0 0 0 0 0 0 0 1 5 9 12 14 16 17 18 20 19 18 16 15 15 16 19 22 23 22 19 15 12 10 10 10 9 7 5 5 6 7 8 8 8 8 8 10 11 12 11 11 11
0 0 0 0 0 0 0 0 3 9 12 14 15 15 19 23 23 20 18 17 18 19 18 19 22 23 20 15 11 9 9 10 9 7 5 4 5 6 6 6 6 6 8 9 10 9 9 9 9
0 0 0 0 0 0 0 0 3 9 13 13 13 15 19 24 24 22 19 18 20 20 18 18 20 22 19 15 10 8 8 9 10 8 6 5 5 5 6 6 6 5 7 8 8 7 6 6 7

GEFSSGP_con_probscp_306.txt.gz
Probability
3 1 0 0 0 0 0 0 0 0 0 0 0 0 0 0 0 0 0 0 0 0 0 1 1 1 1 2 2 2 3 3 2 2 3 4 4 3 3 3 3 1 1 1 1 0 0 0 0
1 0 0 0 0 0 0 0 0 0 0 0 0 0 0 0 0 0 0 0 0 0 0 0 0 0 0 1 1 1 2 3 2 2 3 4 3 3 3 3 3 2 1 1 1 0 0 0 0
0 0 0 0 0 0 0 0 0 0 0 0 0 0 0 0 0 0 0 0 0 0 0 0 0 0 0 0 0 0 1 2 2 1 2 3 3 3 3 3 3 3 1 1 1 1 0 0 0
0 0 0 0 0 0 0 0 0 0 0 0 0 0 0 0 0 0 0 0 0 0 0 0 0 0 0 1 1 1 0 1 1 1 2 2 3 3 3 2 3 3 3 2 2 2 1 1 1
1 0 0 0 0 0 0 0 0 0 0 0 0 0 0 0 0 0 0 0 0 0 0 0 0 0 0 1 3 3 1 0 0 0 1 1 1 2 1 1 2 3 4 3 3 3 3 2 2
2 1 1 1 0 0 0 0 0 0 0 0 0 0 0 0 0 0 0 0 0 0 0 0 0 1 0 1 3 4 3 1 1 0 0 1 1 1 1 2 3 3 4 4 4 3 3 3 3
2 2 2 1 0 0 0 0 0 0 0 0 0 0 0 0 0 0 0 0 0 0 0 0 0 0 0 0 2 4 4 3 2 0 0 1 1 2 3 3 3 3 4 4 4 4 4 3 4
1 1 1 1 0 0 0 0 0 0 0 0 0 0 0 0 0 0 0 0 0 0 0 0 0 0 0 0 1 2 2 3 2 0 0 1 2 2 3 3 3 3 3 3 5 6 5 5 5
0 0 0 0 0 0 0 0 0 0 0 0 0 0 0 0 0 0 0 0 0 0 0 0 0 0 0 0 0 0 1 2 1 0 0 1 1 1 1 2 2 3 3 3 5 7 7 6 6
0 0 0 0 0 0 0 0 0 0 0 0 0 0 0 0 0 0 1 1 0 0 0 0 0 0 0 0 1 1 1 1 1 0 0 0 0 0 0 1 1 1 2 3 4 6 6 6 5
1 1 1 0 0 0 0 0 0 0 0 0 0 0 0 1 1 1 2 2 1 0 0 0 0 0 0 1 2 2 2 2 2 1 0 0 0 0 0 0 0 0 1 1 3 3 3 3 4
2 2 2 1 0 0 0 0 0 0 0 0 0 1 1 2 3 3 4 3 1 0 0 0 0 0 0 1 2 2 2 2 2 1 0 0 0 0 0 0 1 1 0 0 1 1 1 2 3
2 2 2 1 0 0 0 0 0 0 0 0 1 2 3 3 4 4 4 3 2 1 0 0 0 0 0 0 1 1 1 1 1 0 0 0 0 0 0 1 2 2 1 0 0 0 1 1 1
1 1 1 1 0 0 0 0 0 0 1 1 3 4 4 3 3 4 3 3 2 1 0 0 0 0 0 0 0 0 0 0 0 0 0 0 0 0 1 2 3 2 1 0 0 0 0 0 0
0 0 0 0 0 0 0 0 0 1 2 2 3 3 3 3 3 3 3 3 3 1 0 0 0 0 0 0 0 0 0 0 0 0 0 0 0 0 1 2 2 1 0 0 0 0 0 0 1
0 0 0 0 0 0 0 0 0 2 3 3 2 1 1 1 3 3 3 3 3 2 1 0 0 0 0 0 0 0 0 0 0 0 0 0 0 0 0 1 1 0 0 0 0 0 1 1 2
0 0 0 0 0 0 0 0 0 1 2 2 2 1 0 1 2 3 3 3 3 2 1 0 0 0 0 0 0 0 0 0 0 0 0 1 1 1 1 2 1 1 1 1 1 2 3 3 3
0 0 0 0 0 0 0 0 0 0 1 2 2 1 0 1 2 3 3 3 3 2 1 1 1 0 0 0 0 0 0 0 0 0 0 1 2 3 4 5 4 4 3 3 3 5 5 5 5
0 0 0 0 0 0 0 0 0 0 0 1 1 0 0 0 1 2 4 4 4 3 3 2 2 1 0 0 0 0 0 0 0 0 0 1 1 3 5 6 6 5 5 5 5 6 7 7 7
0 0 0 0 0 0 0 0 0 0 0 0 0 0 0 0 0 2 4 5 5 5 4 3 2 1 1 0 0 0 0 0 0 0 0 0 0 2 5 5 4 4 4 5 6 7 9 9 9
0 0 0 0 0 0 0 0 0 0 0 0 0 0 0 0 0 1 4 5 4 4 4 3 2 2 2 1 1 1 0 0 0 0 0 0 1 3 4 4 4 4 5 6 7 8 10 10 10
0 0 0 0 0 0 0 0 0 0 0 0 0 0 0 0 0 1 3 4 5 4 4 3 3 3 4 3 3 3 1 0 0 0 0 1 2 3 4 4 5 7 8 8 9 10 10 11 11
0 0 0 0 0 0 0 0 0 0 0 0 0 0 0 0 0 1 2 4 5 6 5 4 3 4 5 6 6 5 3 1 0 0 1 2 3 4 4 5 7 8 9 10 10 10 11 11 11
0 0 0 0 0 0 0 0 0 0 0 0 0 0 0 0 0 0 2 4 6 7 7 5 4 5 6 7 7 5 3 1 1 1 3 5 5 5 5 6 7 8 9 10 10 10 10 11 11
0 0 0 0 0 0 0 0 1 1 1 1 0 0 0 0 0 1 3 5 7 8 7 6 5 6 7 8 7 6 5 4 3 4 4 5 5 4 4 5 5 6 8 9 10 10 10 10 10
0 0 0 0 0 0 0 1 2 2 2 2 1 0 0 0 1 2 4 5 6 7 8 7 6 7 7 7 5 5 6 6 5 5 4 3 3 3 3 3 2 2 4 5 8 10 10 9 9
0 0 0 0 0 0 0 1 2 3 3 2 1 0 0 1 2 4 5 5 5 6 7 8 7 6 6 5 3 3 4 5 5 4 4 4 3 2 2 1 0 0 1 2 4 6 8 9 8
0 0 0 0 0 0 0 1 2 2 2 1 0 0 1 2 3 5 6 5 4 5 8 9 7 6 5 4 2 2 3 5 5 5 5 5 4 3 3 2 1 0 0 0 1 2 5 7 7
0 0 0 0 0 0 0 0 1 1 3 3 1 1 2 3 3 4 5 5 5 7 11 12 9 7 5 4 4 4 5 6 6 5 5 6 6 6 6 5 3 2 0 0 0 1 4 6 7
0 0 0 0 0 0 0 0 0 1 4 4 3 2 3 3 3 2 4 5 7 10 14 13 11 8 6 5 5 5 6 6 6 6 6 6 7 8 8 7 5 3 1 1 1 1 4 7 7

GEFSSGP_con_probscp_312.txt.gz
Probability
3 2 3 5 5 1 0 0 0 0 0 0 0 0 0 0 0 0 0 0 0 0 0 0 1 0 0 0 0 1 1 1 0 0 0 0 0 0 0 0 0 0 0 1 1 1 0 0 0
3 2 3 5 3 1 0 0 0 0 0 0 0 0 0 0 0 0 0 0 0 0 0 1 2 1 0 0 0 0 0 0 0 0 0 0 0 0 0 0 0 0 0 0 1 1 0 0 0
5 4 4 3 1 0 0 0 0 0 0 0 0 0 0 0 0 0 0 0 0 0 0 1 2 1 0 0 0 0 0 0 0 0 0 0 1 1 1 1 0 0 0 0 0 0 0 1 1
8 8 5 2 0 0 0 0 0 0 0 0 0 0 0 0 0 0 0 0 0 0 0 0 1 0 0 0 0 1 1 0 0 0 0 0 1 2 2 2 1 1 1 1 1 1 1 2 2
7 6 3 1 0 0 0 0 0 0 0 0 0 0 0 0 0 0 0 0 0 0 0 0 0 0 0 0 0 1 1 0 0 0 0 0 1 2 3 3 3 2 2 2 3 3 3 3 3
3 2 1 0 0 0 0 0 0 0 0 0 0 0 0 0 0 0 0 0 0 0 0 0 0 0 0 0 0 1 1 1 1 0 0 0 0 1 2 3 3 3 3 3 4 4 4 3 2
1 0 0 0 0 0 0 0 0 0 0 0 0 0 0 0 0 0 0 0 0 0 0 0 0 1 1 1 1 1 1 2 2 1 0 0 1 1 2 3 3 3 2 2 3 3 3 2 2
1 1 0 0 0 0 0 0 0 0 0 0 0 0 0 0 0 0 0 0 0 0 0 0 1 1 1 1 2 2 2 3 3 2 1 1 1 2 2 2 2 2 2 2 2 2 2 2 2
1 1 1 0 0 0 0 0 0 0 0 0 0 0 0 0 0 0 0 0 0 0 1 1 1 1 1 1 1 2 2 3 4 4 3 2 1 1 1 1 1 2 2 2 2 3 3 2 2
1 2 1 0 0 0 0 0 0 0 0 0 0 0 1 1 1 1 1 0 0 0 1 1 1 1 1 1 2 2 3 4 5 5 4 3 1 1 1 1 1 1 2 2 3 3 3 2 2
1 1 1 0 0 0 0 0 0 0 0 0 1 1 1 1 2 2 2 1 0 0 0 0 1 1 2 2 3 4 6 8 7 6 5 4 3 3 2 2 2 1 1 1 1 2 1 1 1
0 0 0 0 0 0 0 0 0 0 0 0 1 2 1 0 1 3 3 2 1 1 0 1 1 2 4 5 5 7 9 10 9 8 5 4 4 4 3 3 3 3 2 1 1 1 1 1 1
0 0 0 0 0 0 0 0 0 0 0 1 2 2 1 0 1 2 3 3 2 1 1 2 2 3 5 8 9 10 11 12 12 10 7 5 4 4 3 4 4 4 4 5 4 3 4 4 3
0 0 0 0 0 0 0 0 0 0 0 1 2 1 1 0 0 1 2 2 2 1 1 2 2 2 4 8 10 10 11 13 13 10 8 6 5 4 4 4 5 6 8 9 9 7 8 7 6
0 0 0 0 0 0 0 0 0 0 0 1 1 0 0 0 0 0 0 0 0 0 0 1 1 0 2 6 9 9 8 10 11 9 8 6 4 4 4 5 7 9 11 12 11 9 8 9 9
0 0 0 0 0 0 0 0 1 1 0 0 0 0 0 0 0 1 1 0 0 0 0 0 0 1 3 8 10 9 8 8 8 8 7 6 4 3 4 6 9 11 12 11 10 9 8 9 10
0 0 0 0 0 0 0 1 2 2 1 0 0 0 0 0 0 1 2 1 0 0 0 0 1 2 5 10 13 11 10 9 8 7 7 6 4 3 4 7 10 10 10 9 8 8 8 7 8
0 0 0 0 0 0 0 1 2 3 2 1 0 0 0 0 0 1 2 1 1 0 0 1 3 5 6 9 11 11 11 10 9 7 6 5 4 3 4 6 8 7 6 5 6 6 6 7 8
0 0 0 0 0 0 0 0 1 2 2 1 0 0 0 0 0 1 2 3 2 2 1 2 4 6 7 7 7 8 9 10 10 8 6 4 3 3 3 4 5 5 5 5 6 6 7 8 10
0 0 0 0 0 0 0 0 1 2 1 1 0 0 0 0 0 1 2 3 4 4 4 5 6 8 8 7 6 7 9 11 10 8 6 4 3 3 3 4 4 4 6 8 9 9 9 10 11
0 0 0 0 0 0 0 0 1 1 1 0 0 0 0 0 0 0 1 3 5 6 7 8 8 9 10 9 7 7 9 11 10 8 6 4 3 3 4 4 4 6 8 11 12 12 12 12 11
0 0 0 0 0 0 0 0 0 0 0 0 0 1 0 0 0 1 2 5 6 8 9 10 11 12 12 11 9 8 9 9 8 6 5 4 3 3 4 5 6 8 10 12 13 13 12 12 12
0 0 0 0 0 0 0 0 0 0 0 0 0 0 0 0 0 1 3 6 8 10 10 12 14 15 14 13 12 11 11 10 8 6 5 4 4 4 5 6 7 8 10 12 12 11 11 11 12
0 0 0 0 0 0 0 0 0 0 0 0 0 0 0 0 0 1 3 7 10 13 14 14 17 18 17 15 15 15 14 13 10 7 5 4 4 5 6 6 5 5 7 9 10 10 10 11 12
0 0 0 0 0 0 0 0 0 0 0 0 0 0 0 0 0 1 3 7 12 16 18 18 19 20 19 18 17 16 15 12 9 6 4 4 4 4 5 5 5 4 4 5 6 8 10 12 14
0 0 0 0 0 0 0 0 0 0 0 0 1 1 0 1 1 1 3 7 12 16 19 22 24 25 23 21 17 14 12 9 7 5 3 3 3 3 4 5 6 5 4 4 5 6 7 11 13
0 0 0 0 0 0 0 0 0 0 0 0 1 2 2 3 4 5 5 8 10 13 18 23 26 27 27 23 17 11 9 8 6 4 3 3 3 4 5 6 6 6 6 6 5 5 6 10 12
0 0 0 0 0 0 0 0 0 0 0 0 1 3 4 4 5 7 8 9 11 13 16 20 22 24 25 22 14 8 7 8 7 5 4 4 5 6 7 7 7 7 7 7 7 7 8 11 14
0 0 0 0 0 0 0 0 0 0 0 0 1 4 6 6 6 8 11 13 15 16 17 19 19 19 20 16 10 6 6 6 6 5 5 6 7 7 7 7 8 9 10 10 11 11 12 14 15
0 0 0 0 0 0 0 0 0 0 0 0 2 5 7 8 8 9 12 16 18 20 21 20 19 19 19 13 7 5 4 4 5 6 6 7 8 7 6 7 10 11 12 13 15 15 15 17 17